WetterOnline ( https://www.wetteronline.de )

Wetter aktuell Rhön

Aktuelles Wetter: Wasserkuppe (925m)

6-stündlich | Neueste Meldungen
Ortszeit Temperatur Wetter
Do, 18.07. 20:00 20.0° C bewölkt
Do, 18.07. 14:00 19.8° C leicht bewölkt
Do, 18.07. 8:00 15.7° C wolkenlos
Do, 18.07. 2:00 12.9° C leicht bewölkt
Mi, 17.07. 20:00 16.8° C leicht bewölkt
Mi, 17.07. 14:00 16.9° C bewölkt
Mi, 17.07. 8:00 12.0° C bedeckt
Mi, 17.07. 2:00 11.5° C wolkenlos
Ortszeit Temperatur Wetter
Do, 18.07. 21:30 18.0° C leicht bewölkt
Do, 18.07. 21:20 18.0° C leicht bewölkt
Do, 18.07. 21:10 18.2° C leicht bewölkt
Do, 18.07. 21:00 18.6° C leicht bewölkt
Do, 18.07. 20:50 18.6° C leicht bewölkt
Do, 18.07. 20:40 18.7° C wolkig
Do, 18.07. 20:30 19.3° C wolkig
Do, 18.07. 20:00 20.0° C bewölkt
Do, 18.07. 19:30 19.4° C bedeckt
Do, 18.07. 19:00 20.1° C wolkig
Do, 18.07. 18:30 21.7° C wolkig
Ortszeit Relative Feuchte Sichtweite
Do, 18.07. 20:00 58% 65 km
Do, 18.07. 14:00 62% 55 km
Do, 18.07. 8:00 76% 45 km
Do, 18.07. 2:00 86% 35 km
Mi, 17.07. 20:00 71% 45 km
Mi, 17.07. 14:00 72% 50 km
Mi, 17.07. 8:00 94% 30 km
Mi, 17.07. 2:00 92% 40 km
Ortszeit Relative Feuchte Sichtweite
Do, 18.07. 21:30 67% 45 km
Do, 18.07. 21:20 67% -
Do, 18.07. 21:10 66% -
Do, 18.07. 21:00 64% 50 km
Do, 18.07. 20:50 64% -
Do, 18.07. 20:40 63% -
Do, 18.07. 20:30 56% 55 km
Do, 18.07. 20:00 58% 65 km
Do, 18.07. 19:30 58% 55 km
Do, 18.07. 19:00 52% 55 km
Do, 18.07. 18:30 48% 65 km
Ortszeit Niederschlagsmenge Niederschlagsart
Do, 18.07. 20:00 0.0 l/m2 in 12 Std. -
Do, 18.07. 14:00 0.0 l/m2 in 6 Std. -
Do, 18.07. 8:00 0.0 l/m2 in 12 Std. -
Do, 18.07. 2:00 0.0 l/m2 in 6 Std. -
Mi, 17.07. 20:00 0.1 l/m2 in 12 Std. Regen
Mi, 17.07. 14:00 0.0 l/m2 in 6 Std. -
Mi, 17.07. 8:00 0.0 l/m2 in 12 Std. -
Mi, 17.07. 2:00 0.0 l/m2 in 6 Std. -
Ortszeit Niederschlagsmenge Niederschlagsart
Do, 18.07. 21:30 0.0 l/m2 in 30 Min -
Do, 18.07. 21:20 keine Meldung -
Do, 18.07. 21:10 keine Meldung -
Do, 18.07. 21:00 0.0 l/m2 in 1 Std. -
Do, 18.07. 20:50 keine Meldung -
Do, 18.07. 20:40 keine Meldung -
Do, 18.07. 20:30 0.0 l/m2 in 30 Min -
Do, 18.07. 20:00 0.0 l/m2 in 1 Std. -
Do, 18.07. 19:30 0.0 l/m2 in 30 Min -
Do, 18.07. 19:00 0.0 l/m2 in 1 Std. -
Do, 18.07. 18:30 0.0 l/m2 in 30 Min -
Ortszeit Stärke Spitze Richtung
km/h Bft. km/h Grad Sektor
Do, 18.07. 20:00 6 1 20 100° O
Do, 18.07. 14:00 11 2 20 10° N
Do, 18.07. 8:00 15 3 20 120° SO
Do, 18.07. 2:00 7 2 14 130° SO
Mi, 17.07. 20:00 9 2 30 300° NW
Mi, 17.07. 14:00 15 3 31 260° W
Mi, 17.07. 8:00 19 3 35 240° SW
Mi, 17.07. 2:00 22 4 44 240° SW
Ortszeit Stärke Spitze Richtung
km/h Bft. km/h Grad Sektor
Do, 18.07. 21:30 9 2 11 30° NO
Do, 18.07. 21:20 9 2 - 30° NO
Do, 18.07. 21:10 7 2 - 30° NO
Do, 18.07. 21:00 6 1 7 30° NO
Do, 18.07. 20:50 6 1 - 30° NO
Do, 18.07. 20:40 6 1 - 30° NO
Do, 18.07. 20:30 6 1 7 80° O
Do, 18.07. 20:00 6 1 11 100° O
Do, 18.07. 19:30 6 1 9 70° O
Do, 18.07. 19:00 7 2 18 110° O
Do, 18.07. 18:30 7 2 18 120° SO
Ortszeit Untergrenze Bedeckung Gattung
total tief tief mittel hoch
Do, 18.07. 20:00 5700 m 7/8 7/8 - - -
Do, 18.07. 14:00 930 m 4/8 1/8 - - -
Do, 18.07. 8:00 - 0/8 0/8 - - -
Do, 18.07. 2:00 9000 m 4/8 0/8 - - -
Mi, 17.07. 20:00 2100 m 2/8 2/8 - - -
Mi, 17.07. 14:00 480 m 7/8 6/8 - - -
Mi, 17.07. 8:00 120 m 8/8 8/8 - - -
Mi, 17.07. 2:00 - 0/8 0/8 - - -
Ortszeit Bedeckungsgrad in Achtel und Wolkenuntergrenze
Do, 18.07. 21:30 2(7500m) 3(9000m)
Do, 18.07. 21:20 2(7500m) 2(9000m) 3(9000m)
Do, 18.07. 21:10 3
Do, 18.07. 21:00 2(8100m) 5(9000m) 6(9000m)
Do, 18.07. 20:50 2(8100m) 5(9000m) 6(9000m)
Do, 18.07. 20:40 6
Do, 18.07. 20:30 2(5100m) 6(9000m) 6(9000m)
Do, 18.07. 20:00 7(5700m) 7(6900m) 7(9000m)
Do, 18.07. 19:30 6(6000m) 8(6900m) 8(7800m)
Do, 18.07. 19:00 2(5700m) 7(8100m) 7(9000m)
Do, 18.07. 18:30 5(7200m) 7(7800m) 7(9000m)
Ortszeit Stationsdruck (hPa) Tendenz (hPa in 3 Std.)
Do, 18.07. 20:00 918 - 0,3
Do, 18.07. 14:00 918 - 0,4
Do, 18.07. 8:00 918 + 0,4
Do, 18.07. 2:00 918 0,0
Mi, 17.07. 20:00 917 + 0,6
Mi, 17.07. 14:00 916 + 1,2
Mi, 17.07. 8:00 914 + 1,3
Mi, 17.07. 2:00 912 + 0,3
Ortszeit Stationsdruck (hPa) Tendenz (hPa in 3 Std.)
Do, 18.07. 21:30 918 + 0,1
Do, 18.07. 21:20 918 keine Meldung
Do, 18.07. 21:10 918 keine Meldung
Do, 18.07. 21:00 918 0,0
Do, 18.07. 20:50 918 keine Meldung
Do, 18.07. 20:40 918 keine Meldung
Do, 18.07. 20:30 918 - 0,2
Do, 18.07. 20:00 918 - 0,3
Do, 18.07. 19:30 918 - 0,3
Do, 18.07. 19:00 918 - 0,4
Do, 18.07. 18:30 918 - 0,5
Ortszeit Schneehöhe (cm)
Do, 18.07. 20:00 0
Do, 18.07. 14:00 0
Do, 18.07. 8:00 0
Do, 18.07. 2:00 0
Mi, 17.07. 20:00 0
Mi, 17.07. 14:00 0
Mi, 17.07. 8:00 0
Mi, 17.07. 2:00 0
Ortszeit Schneehöhe (cm)
Do, 18.07. 21:30 0
Do, 18.07. 21:20 0
Do, 18.07. 21:10 -
Do, 18.07. 21:00 0
Do, 18.07. 20:50 0
Do, 18.07. 20:40 -
Do, 18.07. 20:30 0
Do, 18.07. 20:00 0
Do, 18.07. 19:30 0
Do, 18.07. 19:00 0
Do, 18.07. 18:30 0
Link zu dieser Seite / Seite empfehlen

Das Wetter in ...